DW8167 Weather Reports


time (UTC)temp
C
wind
direction
speed
KPH
gust
KPH
rain 1hr
cm
rain 24hr
cm
rain mn
cm
humidity
%
barometer
mb
20260906125555 26 358 0.0 0.0 0.00 0.00 0.00 94 1013.7
20260906125054 26 358 0.0 0.0 0.00 0.00 0.00 95 1013.4
20260906124550 26 358 0.0 0.0 0.00 0.00 0.00 95 1013.3
20260906124045 25 358 0.0 0.0 0.00 0.00 0.00 96 1013.2
20260906123544 25 353 0.0 0.0 0.00 0.00 0.00 98 1013.1
20260906123039 25 352 0.0 0.0 0.00 0.00 0.00 99 1013.1
20260906122533 25 359 0.0 0.0 0.00 0.00 0.00 99 1013.1
20260906122030 25 358 0.0 0.0 0.00 0.00 0.00 99 1013.0
20260906121525 25 359 0.0 0.0 0.00 0.00 0.00 99 1013.1
20260906121022 25 359 0.0 0.0 0.00 0.00 0.00 99 1012.9
20260906120522 25 359 0.0 0.0 0.00 0.00 0.00 99 1013.3
20260906120019 25 359 0.0 0.0 0.00 0.00 0.00 99 1013.3
20260906115514 25 0 0.0 0.0 0.00 0.00 0.00 99 1013.2
20260906115008 25 0 0.0 0.0 0.00 0.00 0.00 99 1013.1
20260906114502 25 357 0.0 0.0 0.00 0.00 0.00 99 1013.1
20260906113958 25 355 0.0 0.0 0.00 0.00 0.00 99 1013.1
20260906113457 25 0 0.0 0.0 0.00 0.00 0.00 99 1013.0
20260906112952 25 0 0.0 0.0 0.00 0.00 0.00 99 1013.0
20260906112448 25 0 0.0 0.0 0.00 0.00 0.00 99 1013.0
20260906111943 25 0 0.0 0.0 0.00 0.00 0.00 99 1013.1
20260906111442 25 0 0.0 0.0 0.00 0.00 0.00 99 1013.2
20260906110938 25 0 0.0 0.0 0.00 0.00 0.00 99 1013.1
20260906110433 25 0 0.0 0.0 0.00 0.00 0.00 99 1013.1
20260906105932 25 0 0.0 0.0 0.00 0.00 0.00 99 1013.1
20260906105428 25 0 0.0 0.0 0.00 0.00 0.00 99 1013.2
20260906104924 25 0 0.0 0.0 0.00 0.00 0.00 99 1013.2
20260906104421 25 0 0.0 0.0 0.00 0.00 0.00 99 1013.2
20260906103916 25 0 0.0 0.0 0.00 0.00 0.00 99 1013.2
20260906103414 25 0 0.0 0.0 0.00 0.00 0.00 99 1013.5
20260906102910 25 0 0.0 0.0 0.00 0.00 0.00 99 1013.4
20260906102409 25 0 0.0 0.0 0.00 0.00 0.00 99 1013.4
20260906101904 25 1 0.0 0.0 0.00 0.00 0.00 99 1013.6
20260906101359 25 1 0.0 0.0 0.00 0.00 0.00 99 1013.3
20260906100855 25 1 0.0 0.0 0.00 0.00 0.00 99 1013.3
20260906100354 25 2 0.0 0.0 0.00 0.00 0.00 99 1013.2
20260906095849 25 0 0.0 3.2 0.00 0.00 0.00 99 1012.8
20260906095344 25 356 0.0 0.0 0.00 0.00 0.00 99 1012.6
20260906094843 25 351 0.0 0.0 0.00 0.00 0.00 99 1012.6
20260906094338 25 351 0.0 0.0 0.00 0.00 0.00 99 1012.5
20260906093830 25 351 0.0 0.0 0.00 0.00 0.00 99 1012.5
20260906093325 25 350 0.0 0.0 0.00 0.00 0.00 98 1012.6
20260906092819 25 349 0.0 3.2 0.00 0.00 0.00 98 1012.6
20260906092314 25 350 0.0 0.0 0.00 0.00 0.00 99 1012.4
20260906091809 25 351 0.0 0.0 0.00 0.00 0.00 99 1012.5
20260906091305 25 3 0.0 0.0 0.00 0.00 0.00 99 1012.4
20260906090802 25 3 0.0 0.0 0.00 0.00 0.00 99 1012.1
20260906090301 25 3 0.0 0.0 0.00 0.00 0.00 99 1012.3
20260906085800 25 3 0.0 0.0 0.00 0.00 0.00 99 1012.3
20260906085253 25 3 0.0 0.0 0.00 0.00 0.00 99 1012.8
20260906084748 25 3 0.0 0.0 0.00 0.00 0.00 99 1012.4
20260906084242 25 3 0.0 0.0 0.00 0.00 0.00 99 1012.4
20260906083737 25 3 0.0 0.0 0.00 0.00 0.00 99 1012.5
20260906083233 25 3 0.0 0.0 0.00 0.00 0.00 99 1012.5
20260906082728 25 3 0.0 0.0 0.00 0.00 0.00 99 1012.5
20260906082223 25 3 0.0 0.0 0.00 0.00 0.00 99 1012.6
20260906081719 25 3 0.0 0.0 0.00 0.00 0.00 99 1012.8
20260906081219 25 3 0.0 0.0 0.00 0.00 0.00 99 1012.5
20260906080715 25 3 0.0 0.0 0.00 0.00 0.00 99 1012.7
20260906080211 25 3 0.0 0.0 0.00 0.00 0.00 99 1012.5
20260906075706 25 3 0.0 0.0 0.00 0.00 0.00 99 1012.2
20260906075201 25 3 0.0 0.0 0.00 0.00 0.00 99 1012.4
20260906074656 25 3 0.0 0.0 0.00 0.00 0.00 99 1012.4
20260906074154 25 3 0.0 0.0 0.00 0.00 0.00 99 1012.3
20260906073649 25 3 0.0 0.0 0.00 0.00 0.00 99 1012.4
20260906073140 25 9 4.8 6.4 0.00 0.00 0.00 99 1012.3
20260906072635 25 5 0.0 0.0 0.00 0.00 0.00 99 1012.2
20260906072130 25 6 0.0 3.2 0.00 0.00 0.00 99 1012.3
20260906071627 25 5 0.0 0.0 0.00 0.00 0.00 99 1012.4
20260906071126 25 5 0.0 0.0 0.00 0.00 0.00 99 1012.5
20260906070623 25 5 0.0 0.0 0.00 0.00 0.00 99 1012.3
20260906070119 25 5 0.0 0.0 0.00 0.00 0.00 99 1012.3
20260906065618 25 5 0.0 0.0 0.00 0.00 0.00 99 1012.5
20260906065114 25 5 0.0 0.0 0.00 0.00 0.00 99 1012.5
20260906064609 25 5 0.0 0.0 0.00 0.00 0.00 99 1012.4
20260906064104 25 5 0.0 0.0 0.00 0.00 0.00 99 1012.4
20260906063559 25 5 0.0 0.0 0.00 0.00 0.00 99 1012.4
20260906063055 25 5 0.0 0.0 0.00 0.00 0.00 99 1012.6
20260906062551 25 5 0.0 0.0 0.00 0.00 0.00 99 1012.6
20260906062044 25 5 0.0 0.0 0.00 0.00 0.00 98 1012.7
20260906061541 25 5 0.0 0.0 0.00 0.00 0.00 99 1012.5
20260906061040 25 5 0.0 0.0 0.00 0.00 0.00 99 1012.7
20260906060537 25 5 0.0 0.0 0.00 0.00 0.00 98 1012.9
20260906060034 25 5 0.0 0.0 0.00 0.00 0.00 98 1012.9
20260906055529 25 5 0.0 0.0 0.00 0.00 0.00 98 1012.9
20260906055024 25 5 0.0 0.0 0.00 0.00 0.00 98 1012.7
20260906054524 25 5 0.0 0.0 0.00 0.00 0.00 98 1013.0
20260906054020 26 5 0.0 0.0 0.00 0.00 0.00 97 1013.0
20260906053516 26 5 0.0 0.0 0.00 0.00 0.00 97 1013.0
20260906053011 26 5 0.0 0.0 0.00 0.00 0.00 96 1013.3
20260906052507 26 5 0.0 0.0 0.00 0.00 0.00 97 1013.2
20260906052004 26 5 0.0 0.0 0.00 0.00 0.00 97 1013.2
20260906051459 26 5 0.0 0.0 0.00 0.00 0.00 97 1013.3
20260906050954 26 5 0.0 0.0 0.00 0.00 0.00 96 1013.3
20260906050454 26 6 0.0 0.0 0.00 0.00 0.00 96 1013.5
20260906045948 26 6 0.0 0.0 0.00 0.00 0.00 96 1013.1
20260906045447 26 6 0.0 0.0 0.00 0.00 0.00 96 1013.1
20260906044943 26 4 0.0 0.0 0.00 0.00 0.00 96 1013.4
20260906044437 26 4 0.0 0.0 0.00 0.00 0.00 95 1013.2
20260906043927 26 5 0.0 0.0 0.00 0.00 0.00 95 1013.4
20260906043423 26 4 0.0 0.0 0.00 0.00 0.00 95 1013.3
20260906042919 26 4 0.0 0.0 0.00 0.00 0.00 95 1013.5
20260906042418 26 4 0.0 0.0 0.00 0.00 0.00 95 1013.2
20260906041913 26 4 0.0 0.0 0.00 0.00 0.00 94 1013.3
20260906041409 26 4 0.0 0.0 0.00 0.00 0.00 94 1013.3
20260906040908 26 1 0.0 0.0 0.00 0.00 0.00 94 1013.2
20260906040404 26 0 0.0 0.0 0.00 0.00 0.00 94 1013.2
20260906035859 26 0 0.0 0.0 0.00 0.00 0.00 94 1013.4
20260906035354 26 0 0.0 0.0 0.00 0.00 0.00 94 1013.3
20260906034849 26 0 0.0 0.0 0.00 0.00 0.00 94 1013.1
20260906034344 26 0 0.0 0.0 0.00 0.00 0.00 94 1013.2
20260906033840 26 0 0.0 0.0 0.00 0.00 0.00 94 1013.1
20260906033339 26 0 0.0 0.0 0.00 0.00 0.00 94 1013.2
20260906032836 26 1 0.0 0.0 0.00 0.00 0.00 94 1013.3
20260906032331 26 1 0.0 0.0 0.00 0.00 0.00 94 1013.4
20260906031826 26 1 0.0 0.0 0.00 0.00 0.00 94 1013.5
20260906031322 26 1 0.0 0.0 0.00 0.00 0.00 94 1013.5
20260906030822 27 1 0.0 0.0 0.00 0.00 0.00 93 1013.4
20260906030317 27 1 0.0 0.0 0.00 0.00 0.00 93 1013.2
20260906025816 27 1 0.0 0.0 0.00 0.00 0.00 92 1013.2
20260906025306 27 1 0.0 0.0 0.00 0.00 0.00 92 1013.2
20260906024804 27 0 0.0 0.0 0.00 0.00 0.00 92 1012.9
20260906024303 27 0 0.0 0.0 0.00 0.00 0.00 91 1013.0
20260906023759 27 0 0.0 0.0 0.00 0.00 0.00 91 1013.0
20260906023254 27 0 0.0 0.0 0.00 0.00 0.00 91 1013.2
20260906022750 27 0 0.0 0.0 0.00 0.00 0.00 91 1013.2
20260906022245 27 0 0.0 0.0 0.00 0.00 0.00 90 1013.0
20260906021741 27 0 0.0 0.0 0.00 0.00 0.00 90 1012.9
20260906021240 27 355 0.0 0.0 0.00 0.00 0.00 90 1012.9
20260906020734 27 355 0.0 0.0 0.00 0.00 0.00 89 1013.0
20260906020229 27 356 0.0 0.0 0.00 0.00 0.00 89 1012.9
20260906015724 27 355 0.0 0.0 0.00 0.00 0.00 89 1013.0
20260906015222 27 355 0.0 0.0 0.00 0.00 0.00 88 1012.9
20260906014716 28 355 0.0 0.0 0.00 0.00 0.00 88 1012.7
20260906014213 28 355 0.0 0.0 0.00 0.00 0.00 88 1012.6
20260906013709 28 355 0.0 0.0 0.00 0.00 0.00 87 1012.7
20260906013208 28 355 0.0 0.0 0.00 0.00 0.00 87 1012.4
20260906012703 28 355 0.0 0.0 0.00 0.00 0.00 85 1012.3
20260906012157 28 348 0.0 0.0 0.00 0.00 0.00 85 1011.9
20260906011654 28 347 0.0 0.0 0.00 0.00 0.00 85 1011.9
20260906011148 28 9 0.0 0.0 0.00 0.00 0.00 85 1012.0
20260906010644 28 347 0.0 0.0 0.00 0.00 0.00 84 1011.8
20260906010140 29 352 0.0 6.4 0.00 0.00 0.00 84 1011.7
20260906005639 29 330 0.0 0.0 0.00 0.00 0.00 84 1011.6
20260906005138 29 350 0.0 0.0 0.00 0.00 0.00 84 1011.7
20260906004638 29 340 0.0 0.0 0.00 0.00 0.00 84 1011.4
20260906004133 29 351 0.0 9.7 0.00 0.00 0.00 83 1011.6
20260906003628 30 350 0.0 6.4 0.00 0.00 0.00 83 1011.8
20260906003124 30 349 1.6 6.4 0.00 0.00 0.00 82 1011.6
20260906002619 30 342 0.0 0.0 0.00 0.00 0.00 82 1011.7
20260906002113 30 332 3.2 6.4 0.00 0.00 0.00 82 1011.7
20260906001608 30 359 1.6 6.4 0.00 0.00 0.00 80 1011.7
20260906001103 30 337 0.0 0.0 0.00 0.00 0.00 80 1011.8
20260906000559 30 346 0.0 3.2 0.00 0.00 0.00 79 1011.7
20260906000054 31 318 8.0 9.7 0.00 0.00 0.00 80 1011.6
20260905235553 31 343 3.2 3.2 0.00 0.00 0.00 78 1011.7
20260905235048 31 355 0.0 9.7 0.00 0.00 0.00 76 1011.8
20260905234543 31 318 3.2 9.7 0.00 0.00 0.00 76 1011.7
20260905234038 31 333 0.0 6.4 0.00 0.00 0.00 75 1011.6
20260905233532 31 319 6.4 6.4 0.00 0.00 0.00 75 1011.7
20260905233027 31 309 6.4 12.9 0.00 0.00 0.00 74 1011.8
20260905232522 31 338 3.2 6.4 0.00 0.00 0.00 74 1011.7
20260905232018 32 306 4.8 9.7 0.00 0.00 0.00 72 1011.4
20260905231513 32 347 0.0 0.0 0.00 0.00 0.00 72 1011.6
20260905231010 32 334 3.2 3.2 0.00 0.00 0.00 72 1011.4
20260905230508 32 320 1.6 6.4 0.00 0.00 0.00 72 1011.4
20260905230007 32 344 3.2 12.9 0.00 0.00 0.00 71 1011.7
20260905225502 32 333 4.8 9.7 0.00 0.00 0.00 71 1011.2
20260905224957 32 324 0.0 3.2 0.00 0.00 0.00 70 1011.0
20260905224452 32 325 3.2 6.4 0.00 0.00 0.00 70 1011.2
20260905223951 32 306 3.2 9.7 0.00 0.00 0.00 69 1011.0
20260905223449 33 349 0.0 3.2 0.00 0.00 0.00 68 1011.2
20260905222944 33 304 8.0 12.9 0.00 0.00 0.00 68 1011.0
20260905222444 33 358 0.0 3.2 0.00 0.00 0.00 67 1011.1
20260905221939 33 282 6.4 12.9 0.00 0.00 0.00 66 1011.1
20260905221436 33 356 0.0 6.4 0.00 0.00 0.00 67 1011.1
20260905220932 33 350 0.0 3.2 0.00 0.00 0.00 67 1011.2
20260905220428 33 334 3.2 6.4 0.00 0.00 0.00 66 1011.1
20260905215927 34 349 0.0 3.2 0.00 0.00 0.00 65 1011.1
20260905215422 34 22 1.6 3.2 0.00 0.00 0.00 65 1011.1
20260905214919 34 328 0.0 3.2 0.00 0.00 0.00 65 1011.1
20260905214414 34 314 1.6 6.4 0.00 0.00 0.00 65 1011.3
20260905213908 34 354 0.0 6.4 0.00 0.00 0.00 64 1011.3
20260905213405 34 327 3.2 6.4 0.00 0.00 0.00 64 1011.3
20260905212900 34 328 3.2 22.5 0.00 0.00 0.00 64 1011.4
20260905212400 34 342 3.2 6.4 0.00 0.00 0.00 64 1011.4
20260905211854 34 309 6.4 9.7 0.00 0.00 0.00 64 1011.4
20260905211349 35 356 6.4 12.9 0.00 0.00 0.00 64 1011.6
20260905210840 35 343 3.2 6.4 0.00 0.00 0.00 62 1011.4
20260905210340 35 346 3.2 6.4 0.00 0.00 0.00 61 1011.2
20260905205838 35 354 1.6 3.2 0.00 0.00 0.00 63 1011.3
20260905205332 35 328 0.0 0.0 0.00 0.00 0.00 62 1011.7
20260905204827 35 297 9.7 9.7 0.00 0.00 0.00 60 1011.6
20260905204323 35 332 6.4 6.4 0.00 0.00 0.00 59 1011.4
20260905203821 35 307 4.8 6.4 0.00 0.00 0.00 59 1011.6
20260905203318 35 275 6.4 9.7 0.00 0.00 0.00 59 1011.9
20260905202813 36 305 6.4 9.7 0.00 0.00 0.00 57 1011.7
20260905202308 36 340 3.2 6.4 0.00 0.00 0.00 59 1011.7
20260905201803 36 322 4.8 9.7 0.00 0.00 0.00 59 1012.0
20260905201259 36 349 1.6 6.4 0.00 0.00 0.00 56 1012.0
20260905200753 36 332 0.0 0.0 0.00 0.00 0.00 59 1012.1
20260905200249 36 352 3.2 6.4 0.00 0.00 0.00 59 1012.1
20260905195747 35 12 3.2 9.7 0.00 0.00 0.00 60 1012.0
20260905195242 36 310 3.2 6.4 0.00 0.00 0.00 60 1012.1
20260905194738 35 314 4.8 12.9 0.00 0.00 0.00 63 1012.0
20260905194237 35 297 9.7 12.9 0.00 0.00 0.00 62 1012.1
20260905193737 35 312 8.0 12.9 0.00 0.00 0.00 63 1012.3
20260905193232 35 315 6.4 12.9 0.00 0.00 0.00 64 1012.5
20260905192727 35 334 6.4 16.1 0.00 0.00 0.00 62 1012.3
20260905192224 35 16 0.0 3.2 0.00 0.00 0.00 65 1012.3
20260905191723 35 327 6.4 9.7 0.00 0.00 0.00 64 1012.6
20260905191221 35 353 3.2 16.1 0.00 0.00 0.00 65 1012.5
20260905190720 35 297 8.0 16.1 0.00 0.00 0.00 66 1012.7
20260905190219 35 342 4.8 6.4 0.00 0.00 0.00 65 1012.8
20260905185718 34 330 4.8 9.7 0.00 0.00 0.00 67 1013.0
20260905185213 34 335 4.8 9.7 0.00 0.00 0.00 69 1013.0
20260905184707 34 314 11.3 16.1 0.00 0.00 0.00 68 1012.9
20260905184206 34 357 0.0 12.9 0.00 0.00 0.00 67 1013.0
20260905183700 33 256 11.3 12.9 0.00 0.00 0.00 68 1012.8
20260905183155 33 298 6.4 12.9 0.00 0.00 0.00 70 1013.3
20260905182655 32 8 3.2 9.7 0.00 0.00 0.00 71 1013.4
20260905182155 32 321 6.4 12.9 0.00 0.00 0.00 71 1013.5
20260905181650 33 354 3.2 9.7 0.00 0.00 0.00 71 1013.4
20260905181149 33 313 4.8 6.4 0.00 0.00 0.00 66 1013.6
20260905180644 36 328 4.8 9.7 0.00 0.00 0.00 62 1013.6
20260905180139 37 6 0.0 3.2 0.00 0.00 0.00 49 1013.4
20260905175638 36 2 0.0 0.0 0.00 0.00 0.00 52 1013.5
20260905175133 37 10 0.0 0.0 0.00 0.00 0.00 49 1013.6
20260905174629 37 355 0.0 3.2 0.00 0.00 0.00 53 1013.5
20260905174124 36 355 0.0 0.0 0.00 0.00 0.00 51 1013.6
20260905173621 36 20 4.8 16.1 0.00 0.00 0.00 54 1013.7
20260905173116 36 4 0.0 0.0 0.00 0.00 0.00 50 1013.7
20260905172615 36 336 0.0 0.0 0.00 0.00 0.00 53 1013.9
20260905172110 35 100 8.0 9.7 0.00 0.00 0.00 54 1013.9
20260905171607 35 351 4.8 12.9 0.00 0.00 0.00 56 1014.1
20260905171102 36 24 6.4 19.3 0.00 0.00 0.00 57 1014.0
20260905170558 36 0 0.0 0.0 0.00 0.00 0.00 54 1014.0
20260905170054 35 16 3.2 6.4 0.00 0.00 0.00 56 1014.2
20260905165548 35 355 0.0 6.4 0.00 0.00 0.00 57 1014.4
20260905165043 35 338 0.0 9.7 0.00 0.00 0.00 60 1014.3
20260905164544 35 12 3.2 9.7 0.00 0.00 0.00 60 1014.5
20260905164038 35 5 0.0 0.0 0.00 0.00 0.00 59 1014.6
20260905163534 35 354 0.0 0.0 0.00 0.00 0.00 61 1014.5
20260905163030 35 9 0.0 0.0 0.00 0.00 0.00 62 1014.8
20260905162526 35 1 3.2 6.4 0.00 0.00 0.00 62 1014.6
20260905162015 34 1 0.0 6.4 0.00 0.00 0.00 64 1014.9
20260905161515 33 357 0.0 0.0 0.00 0.00 0.00 63 1014.8
20260905161012 33 353 0.0 0.0 0.00 0.00 0.00 66 1014.8
20260905160506 33 14 0.0 6.4 0.00 0.00 0.00 66 1015.1
20260905160005 33 4 0.0 0.0 0.00 0.00 0.00 67 1014.9
20260905155500 32 1 0.0 3.2 0.00 0.00 0.00 68 1014.7
20260905154958 32 294 1.6 6.4 0.00 0.00 0.00 69 1014.7
20260905154454 32 347 6.4 6.4 0.00 0.00 0.00 71 1014.7
20260905153950 32 357 0.0 0.0 0.00 0.00 0.00 74 1014.6
20260905153446 32 3 0.0 3.2 0.00 0.00 0.00 74 1014.6
20260905152945 31 0 0.0 0.0 0.00 0.00 0.00 75 1014.6
20260905152445 31 15 0.0 0.0 0.00 0.00 0.00 76 1014.7
20260905151939 31 1 8.0 16.1 0.00 0.00 0.00 76 1014.8
20260905151435 31 7 0.0 0.0 0.00 0.00 0.00 76 1014.7
20260905150930 30 15 0.0 3.2 0.00 0.00 0.00 78 1014.5
20260905150430 30 1 0.0 0.0 0.00 0.00 0.00 79 1014.7
20260905145926 30 348 6.4 9.7 0.00 0.00 0.00 78 1014.6
20260905145421 30 2 0.0 0.0 0.00 0.00 0.00 80 1014.7
20260905144921 30 1 0.0 0.0 0.00 0.00 0.00 81 1014.9
20260905144417 29 344 0.0 0.0 0.00 0.00 0.00 81 1014.8
20260905143915 29 12 0.0 3.2 0.00 0.00 0.00 83 1015.0
20260905143410 28 356 0.0 0.0 0.00 0.00 0.00 84 1014.8
20260905142909 28 357 0.0 0.0 0.00 0.00 0.00 84 1014.9
20260905142408 28 0 0.0 0.0 0.00 0.00 0.00 85 1015.0
20260905141904 28 350 0.0 6.4 0.00 0.00 0.00 85 1015.0
20260905141359 28 354 3.2 6.4 0.00 0.00 0.00 85 1014.9
20260905140855 28 6 0.0 3.2 0.00 0.00 0.00 85 1015.1
20260905140349 28 354 0.0 0.0 0.00 0.00 0.00 87 1015.1
20260905135848 27 359 0.0 0.0 0.00 0.00 0.00 88 1015.1
20260905135344 27 355 0.0 0.0 0.00 0.00 0.00 90 1015.2
20260905134840 27 355 0.0 0.0 0.00 0.00 0.00 91 1015.0
20260905134338 26 355 0.0 0.0 0.00 0.00 0.00 92 1015.2
20260905133833 26 353 0.0 0.0 0.00 0.00 0.00 93 1014.9
20260905133328 26 359 0.0 0.0 0.00 0.00 0.00 93 1015.0
20260905132827 26 359 0.0 0.0 0.00 0.00 0.00 93 1015.1
20260905132323 26 359 0.0 0.0 0.00 0.00 0.00 94 1015.0
20260905131817 25 359 0.0 0.0 0.00 0.00 0.00 95 1015.4
20260905131313 25 359 0.0 0.0 0.00 0.00 0.00 96 1015.0
20260905130808 25 359 0.0 0.0 0.00 0.00 0.00 97 1015.1
20260905130306 25 359 0.0 0.0 0.00 0.00 0.00 98 1015.3